TimeEST,TemperatureF,Dew PointF,Humidity,Sea Level PressureIn,VisibilityMPH,Wind Direction,Wind SpeedMPH,Gust SpeedMPH,PrecipitationIn,Events,Conditions,WindDirDegrees,DateUTC
12:15 AM,32.9,26.8,78,30.11,10.0,WSW,10.4,-,N/A,,Clear,250,2013-01-20 05:15:00
12:35 AM,32.7,26.8,79,30.10,10.0,West,10.4,-,N/A,,Clear,260,2013-01-20 05:35:00
12:55 AM,33.4,27.3,78,30.10,10.0,WSW,13.8,-,N/A,,Clear,250,2013-01-20 05:55:00
1:15 AM,33.8,27.5,78,30.09,10.0,WSW,13.8,-,N/A,,Clear,240,2013-01-20 06:15:00
1:35 AM,33.8,27.7,78,30.09,10.0,WSW,13.8,-,N/A,,Clear,240,2013-01-20 06:35:00
1:55 AM,34.0,28.0,79,30.09,10.0,WSW,13.8,19.6,N/A,,Clear,240,2013-01-20 06:55:00
2:15 AM,34.7,28.2,77,30.09,10.0,WSW,15.0,-,N/A,,Clear,240,2013-01-20 07:15:00
2:35 AM,34.7,28.2,77,30.09,10.0,WSW,13.8,-,N/A,,Clear,240,2013-01-20 07:35:00
2:55 AM,36.1,28.4,73,30.09,10.0,WSW,15.0,-,N/A,,Clear,250,2013-01-20 07:55:00
3:15 AM,36.3,28.4,73,30.09,10.0,WSW,15.0,21.9,N/A,,Clear,250,2013-01-20 08:15:00
3:35 AM,36.3,28.2,72,30.09,10.0,West,15.0,-,N/A,,Clear,260,2013-01-20 08:35:00
3:55 AM,35.6,28.0,74,30.08,10.0,West,16.1,-,N/A,,Clear,260,2013-01-20 08:55:00
4:15 AM,36.0,28.2,73,30.07,10.0,West,17.3,-,N/A,,Clear,260,2013-01-20 09:15:00
4:35 AM,36.7,28.2,71,30.07,10.0,West,18.4,-,N/A,,Clear,260,2013-01-20 09:35:00
4:55 AM,37.0,28.2,70,30.07,10.0,West,18.4,28.8,N/A,,Clear,260,2013-01-20 09:55:00
5:15 AM,36.9,28.2,71,30.07,10.0,WSW,19.6,-,N/A,,Clear,250,2013-01-20 10:15:00
5:35 AM,36.3,28.0,72,30.07,10.0,WSW,18.4,25.3,N/A,,Clear,250,2013-01-20 10:35:00
5:55 AM,36.1,28.0,72,30.07,10.0,WSW,18.4,24.2,N/A,,Clear,250,2013-01-20 10:55:00
6:15 AM,36.1,28.0,72,30.07,10.0,WSW,19.6,27.6,N/A,,Clear,250,2013-01-20 11:15:00
6:35 AM,35.8,27.9,73,30.07,10.0,WSW,19.6,25.3,N/A,,Clear,250,2013-01-20 11:35:00
6:55 AM,36.0,28.0,73,30.07,10.0,WSW,19.6,25.3,N/A,,Clear,250,2013-01-20 11:55:00
7:15 AM,35.8,27.7,72,30.07,10.0,WSW,18.4,26.5,N/A,,Clear,250,2013-01-20 12:15:00
7:35 AM,35.6,27.9,73,30.07,10.0,WSW,19.6,25.3,N/A,,Clear,250,2013-01-20 12:35:00
7:55 AM,35.6,28.0,74,30.08,10.0,WSW,21.9,27.6,N/A,,Clear,250,2013-01-20 12:55:00
8:15 AM,35.8,28.0,73,30.08,10.0,WSW,16.1,24.2,N/A,,Clear,250,2013-01-20 13:15:00
8:35 AM,36.5,28.2,72,30.08,10.0,WSW,18.4,25.3,N/A,,Clear,250,2013-01-20 13:35:00
8:55 AM,36.9,28.4,71,30.09,10.0,WSW,18.4,-,N/A,,Clear,250,2013-01-20 13:55:00
9:15 AM,37.4,28.8,71,30.09,10.0,WSW,21.9,26.5,N/A,,Clear,250,2013-01-20 14:15:00
9:35 AM,38.3,29.1,70,30.09,10.0,WSW,19.6,25.3,N/A,,Clear,250,2013-01-20 14:35:00
9:55 AM,38.7,29.3,69,30.10,10.0,WSW,20.7,27.6,N/A,,Clear,250,2013-01-20 14:55:00
10:15 AM,39.4,29.8,69,30.10,10.0,WSW,18.4,25.3,N/A,,Clear,250,2013-01-20 15:15:00
10:35 AM,40.1,30.2,68,30.10,10.0,WSW,17.3,24.2,N/A,,Clear,250,2013-01-20 15:35:00
10:55 AM,41.0,30.2,65,30.11,10.0,WSW,19.6,24.2,0.01,,Clear,240,2013-01-20 15:55:00
11:15 AM,41.4,30.9,66,30.10,10.0,WSW,18.4,24.2,0.01,,Clear,240,2013-01-20 16:15:00
11:35 AM,41.9,31.1,66,30.09,10.0,WSW,17.3,26.5,0.02,,Clear,240,2013-01-20 16:35:00
11:55 AM,42.4,31.5,65,30.08,10.0,WSW,20.7,25.3,0.05,,Clear,250,2013-01-20 16:55:00
12:15 PM,42.8,31.8,65,30.07,10.0,WSW,18.4,26.5,0.01,,Clear,240,2013-01-20 17:15:00
12:35 PM,43.0,32.0,65,30.07,10.0,West,21.9,26.5,0.03,,Clear,260,2013-01-20 17:35:00
12:55 PM,43.0,32.0,65,30.06,10.0,WSW,19.6,32.2,0.06,,Clear,250,2013-01-20 17:55:00
1:15 PM,43.5,32.0,64,30.05,10.0,WSW,18.4,26.5,0.02,,Clear,250,2013-01-20 18:15:00
1:35 PM,43.7,32.0,63,30.05,10.0,West,18.4,28.8,0.04,,Clear,260,2013-01-20 18:35:00
1:55 PM,43.7,32.0,63,30.05,10.0,West,17.3,26.5,0.04,,Clear,260,2013-01-20 18:55:00
2:15 PM,44.1,32.0,63,30.05,10.0,WSW,19.6,24.2,N/A,,Scattered Clouds,250,2013-01-20 19:15:00
2:35 PM,44.2,32.0,62,30.05,10.0,WSW,17.3,-,N/A,,Scattered Clouds,250,2013-01-20 19:35:00
2:55 PM,44.6,32.0,61,30.05,10.0,WSW,18.4,23.0,N/A,,Scattered Clouds,250,2013-01-20 19:55:00
3:15 PM,44.6,32.0,61,30.05,10.0,WSW,15.0,24.2,N/A,,Scattered Clouds,250,2013-01-20 20:15:00
3:35 PM,44.6,31.8,61,30.05,10.0,WSW,20.7,25.3,N/A,,Clear,250,2013-01-20 20:35:00
4:15 PM,44.6,32.0,61,30.06,10.0,WSW,15.0,23.0,N/A,,Clear,240,2013-01-20 21:15:00
4:35 PM,44.4,32.0,62,30.06,10.0,WSW,15.0,-,N/A,,Clear,250,2013-01-20 21:35:00
4:55 PM,44.2,32.0,62,30.06,10.0,WSW,13.8,-,N/A,,Clear,250,2013-01-20 21:55:00
5:15 PM,43.7,32.0,63,30.07,10.0,WSW,11.5,-,N/A,,Clear,250,2013-01-20 22:15:00
5:35 PM,43.3,32.0,64,30.07,10.0,WSW,12.7,-,N/A,,Clear,250,2013-01-20 22:35:00
5:55 PM,42.1,32.0,67,30.08,10.0,West,11.5,-,N/A,,Clear,260,2013-01-20 22:55:00
6:15 PM,41.9,32.0,68,30.09,10.0,WSW,11.5,-,N/A,,Clear,250,2013-01-20 23:15:00
6:35 PM,41.2,32.0,70,30.09,10.0,West,11.5,-,N/A,,Clear,260,2013-01-20 23:35:00
6:55 PM,41.2,32.0,70,30.09,10.0,WSW,11.5,-,N/A,,Clear,250,2013-01-20 23:55:00
7:15 PM,40.6,32.0,71,30.09,10.0,WSW,8.1,-,N/A,,Clear,240,2013-01-21 00:15:00
7:35 PM,39.6,32.0,74,30.09,10.0,WSW,8.1,-,N/A,,Clear,250,2013-01-21 00:35:00
7:55 PM,39.2,32.0,75,30.09,10.0,West,9.2,-,N/A,,Clear,260,2013-01-21 00:55:00
8:15 PM,38.7,31.8,76,30.09,10.0,WSW,9.2,-,N/A,,Clear,250,2013-01-21 01:15:00
8:35 PM,37.9,31.8,79,30.09,10.0,WSW,9.2,-,N/A,,Clear,250,2013-01-21 01:35:00
8:55 PM,37.4,31.8,80,30.09,10.0,WSW,8.1,-,N/A,,Clear,240,2013-01-21 01:55:00
9:15 PM,36.9,31.8,82,30.09,10.0,WSW,9.2,-,N/A,,Clear,240,2013-01-21 02:15:00
9:35 PM,36.7,31.6,82,30.09,10.0,WSW,9.2,-,N/A,,Clear,250,2013-01-21 02:35:00
9:55 PM,36.1,31.6,84,30.09,10.0,WSW,9.2,-,N/A,,Clear,250,2013-01-21 02:55:00
10:15 PM,36.0,31.3,83,30.09,10.0,WSW,9.2,-,N/A,,Clear,250,2013-01-21 03:15:00
10:35 PM,36.1,31.5,83,30.09,10.0,WSW,8.1,-,N/A,,Clear,250,2013-01-21 03:35:00
10:55 PM,35.1,31.1,85,30.09,10.0,WSW,8.1,-,N/A,,Clear,250,2013-01-21 03:55:00
11:15 PM,35.6,31.5,85,30.08,10.0,WSW,9.2,-,N/A,,Clear,250,2013-01-21 04:15:00
11:35 PM,34.7,31.1,87,30.08,10.0,WSW,6.9,-,N/A,,Clear,240,2013-01-21 04:35:00
11:55 PM,34.3,31.1,88,30.07,10.0,SW,6.9,-,N/A,,Clear,230,2013-01-21 04:55:00